Location: Tauranga
(37.6860°S, 176.1670°E)
Time: 03:03:46
(UTC+13:00)

ARGOS - Pass Details

Date: 24 January 2019
Orbit: 821 x 834 km, 98.5° (Epoch: 16 February)

Event Time Altitude Azimuth Distance (km) Brightness Sun altitude
Rises 21:32:23 0° 152° (SSE) 3,388 6.4 -10.7°
Reaches altitude 10° 21:35:16 10° 137° (SE) 2,446 5.5 -11.2°
Maximum altitude 21:39:29 23° 86° (E) 1,702 4.3 -11.9°
Enters shadow 21:42:01 17° 49° (NE) 1,995 4.5 -12.3°
